Location: Unspecified
(0.0000°N, 0.0000°E)
Time: 22:14:50
(UTC+00:00)

S-56A Canister/Altair - Pass Details

Date: 20 April 2019
Orbit: 633 x 2499 km, 38.9° (Epoch: 24 May)

Event Time Altitude Azimuth Distance (km) Brightness Sun altitude
Rises 18:35:21 0° 328° (NNW) 3,816 11.8 -8.9°
Reaches altitude 10° 18:38:51 10° 341° (NNW) 2,581 10.7 -9.8°
Maximum altitude 18:43:32 25° 35° (NE) 1,497 8.8 -10.9°
Enters shadow 18:46:31 14° 82° (E) 1,849 8.9 -11.6°
